Simultaneous Nadir Overpasses (SNOs) Predictions

Prediction of SNOs between LANDSAT-8 and NOAA-19 Satellite Orbit:

Table of predicted SNOs for the next 14.0 days since TLE Epoch: 11/26/2016
Index Date (LANDSAT-8) Time (LANDSAT-8) Lat,Lon (LANDSAT-8) SZA (LANDSAT-8 ) Date (NOAA-19) Time (NOAA-19) Lat,Lon (NOAA-19) SZA (NOAA-19 ) Distance(km) Time Diff (sec)
1 11/27/2016 11:04:13 -75.59,-158.97 83.05 11/27/2016 11:03:02 -75.70,-160.30 83.00 38.90 71
2 11/27/2016 11:53:43 75.37, 8.06 96.72 11/27/2016 11:54:00 75.37, 8.03 96.72 1.00 17
3 11/29/2016 16:37:59 75.43, -62.83 97.16 11/29/2016 16:36:57 75.43, -62.85 97.15 0.76 62
4 11/29/2016 17:27:28 -75.36, 104.60 82.92 11/29/2016 17:27:53 -75.38, 104.57 82.89 2.65 25
5 12/01/2016 22:11:44 -75.42, 33.70 82.52 12/01/2016 22:10:50 -75.42, 33.75 82.52 1.44 54
6 12/01/2016 23:01:11 75.35,-158.86 97.41 12/01/2016 23:01:53 75.37,-158.83 97.44 2.22 42
7 12/04/2016 03:45:26 75.45, 130.36 97.83 12/04/2016 03:44:50 75.44, 130.26 97.80 3.38 36
8 12/04/2016 04:34:55 -75.38, -62.19 82.25 12/04/2016 04:35:47 -75.38, -62.30 82.25 3.11 52
9 12/06/2016 09:19:11 -75.44,-133.11 81.93 12/06/2016 09:18:44 -75.43,-133.14 81.94 1.14 27
10 12/06/2016 10:08:38 75.36, 34.31 97.99 12/06/2016 10:09:46 75.38, 34.26 98.03 3.01 68
11 12/08/2016 14:52:54 75.41, -36.63 98.27 12/08/2016 14:52:42 75.42, -36.53 98.29 2.86 12
